Orbital Elements at Epoch 2459200.5 (2020-Dec-17.0) TDB
Reference: JPL 23 (heliocentric ecliptic J2000)
Element | Value | Uncertainty (1-sigma) | Units |
e | .1803390458142892 | 3.3868e-08 | |
a | 2.542193725816916 | 1.0512e-08 | au |
q | 2.08373693502802 | 8.4341e-08 | au |
i | 2.529521044343145 | 3.389e-06 | deg |
node | 54.44821563314555 | 0.00012277 | deg |
peri | 328.2343071075932 | 0.00012366 | deg |
M | 67.27914471207947 | 1.6485e-05 | deg |
tp | 2458923.812619498463 (2020-Mar-15.31261950) | 6.7382e-05 | TDB |
period | 1480.510155217083 4.05 | 9.1828e-06 2.514e-08 | d yr |
n | .2431594263176225 | 1.5082e-09 | deg/d |
Q | 3.000650516605811 | 1.2408e-08 | au |
|
| | Orbit Determination Parameters
Additional Information
|